カタログに戻る

STARLINK-31609

運用中通信VLEO
NORAD 59269·PAYLOAD·🇺🇸 United States

打ち上げ Mar 19, 2024 から Vandenberg Space Force Base

Loading…

次のパス (今後24時間)

TLE

最新Source: CelesTrak SupGP

元期: Sep 15, 2026, 03:29 UTC

1 59269C 24050R   26258.14562500  .00053121  00000+0  15693-2 0  2583
2 59269  53.1609  18.5907 0001161  89.4856 103.0321 15.34368531    16

AllMySatでSTARLINK-31609をリアルタイム追跡

Download on the App Store